Location: Albany
(35.0170°S, 117.8920°E)
Time: 23:41:54
(UTC+08:00)

S-56A Canister/Altair - Pass Details

Date: 22 June 2021
Orbit: 632 x 2501 km, 38.9° (Epoch: 24 July)

Event Time Altitude Azimuth Distance (km) Brightness Sun altitude
Rises 20:20:15 0° 250° (WSW) 6,189 12.9 -39.1°
Reaches altitude 10° 20:24:26 10° 251° (WSW) 5,123 12.3 -40.0°
Enters shadow 20:38:51 77° 324° (NW) 2,116 9.5 -42.9°
